5BLKA RJFR-RJOK

Flight info

Callsign 5BLKA
Flight time 0h 45m
Altitude 23000
Route MYE SPIDE KABIL
Aircraft SF50/L-SBDGRWY/LB2U2

Departure

Time 2026-04-19 05:18
Airport Kitakyushu Airport (RJFR)

Arrival

Time 2026-04-19 06:04
Airport Kochi Ryoma Airport (RJOK)
Time Latitude Longitude Altitude Speed Heading
2026-04-19 05:02 33.83666 131.03368 36 ft 0 kts 169°
2026-04-19 05:11 33.83665 131.03368 36 ft 1 kts 169°
2026-04-19 05:12 33.83636 131.03383 36 ft 7 kts 97°
2026-04-19 05:12 33.83645 131.03448 36 ft 9 kts 80°
2026-04-19 05:12 33.83682 131.03484 36 ft 9 kts 349°
2026-04-19 05:12 33.83746 131.03472 35 ft 10 kts 350°
2026-04-19 05:13 33.83819 131.03457 35 ft 12 kts 350°
2026-04-19 05:13 33.83904 131.03439 35 ft 13 kts 350°
2026-04-19 05:13 33.83997 131.03420 35 ft 14 kts 350°
2026-04-19 05:13 33.84098 131.03400 35 ft 15 kts 351°
2026-04-19 05:14 33.84209 131.03377 35 ft 17 kts 351°
2026-04-19 05:14 33.84328 131.03352 35 ft 18 kts 350°
2026-04-19 05:14 33.84456 131.03328 35 ft 19 kts 352°
2026-04-19 05:14 33.84592 131.03299 36 ft 20 kts 349°
2026-04-19 05:15 33.84736 131.03270 36 ft 21 kts 351°
2026-04-19 05:15 33.84881 131.03239 35 ft 21 kts 351°
2026-04-19 05:15 33.85022 131.03212 35 ft 20 kts 349°
2026-04-19 05:15 33.85146 131.03184 36 ft 16 kts 351°
2026-04-19 05:16 33.85214 131.03238 35 ft 12 kts 75°
2026-04-19 05:16 33.85220 131.03278 34 ft 0 kts 79°
2026-04-19 05:17 33.85221 131.03284 34 ft 4 kts 79°
2026-04-19 05:17 33.85204 131.03368 34 ft 14 kts 146°
2026-04-19 05:18 33.85033 131.03414 35 ft 51 kts 167°
2026-04-19 05:18 33.84476 131.03529 123 ft 102 kts 171°
2026-04-19 05:18 33.83724 131.03602 546 ft 112 kts 173°
2026-04-19 05:18 33.82925 131.03636 962 ft 124 kts 167°
2026-04-19 05:19 33.82210 131.04159 1481 ft 119 kts 126°
2026-04-19 05:19 33.81984 131.05122 2002 ft 126 kts 84°
2026-04-19 05:19 33.82466 131.05993 2602 ft 137 kts 40°
2026-04-19 05:19 33.83457 131.06325 3000 ft 161 kts 10°
2026-04-19 05:20 33.84617 131.06360 3459 ft 171 kts
2026-04-19 05:20 33.85826 131.06449 3970 ft 175 kts 11°
2026-04-19 05:20 33.87038 131.06508 4608 ft 174 kts
2026-04-19 05:20 33.88274 131.06500 5086 ft 182 kts
2026-04-19 05:21 33.89532 131.06384 5687 ft 178 kts
2026-04-19 05:21 33.90762 131.06366 6236 ft 178 kts
2026-04-19 05:21 33.92002 131.06532 6722 ft 179 kts 14°
2026-04-19 05:21 33.93205 131.06809 7284 ft 175 kts 18°
2026-04-19 05:22 33.94412 131.07149 7728 ft 180 kts 21°
2026-04-19 05:22 33.95610 131.07554 8294 ft 177 kts 22°
2026-04-19 05:22 33.96768 131.08014 8837 ft 174 kts 29°
2026-04-19 05:22 33.97795 131.08771 9307 ft 173 kts 49°
2026-04-19 05:23 33.98518 131.09872 9923 ft 163 kts 68°
2026-04-19 05:23 33.98769 131.11183 10338 ft 165 kts 94°
2026-04-19 05:23 33.98600 131.12558 10825 ft 163 kts 101°
2026-04-19 05:23 33.98389 131.13874 11367 ft 162 kts 103°
2026-04-19 05:24 33.98106 131.15286 11423 ft 189 kts 106°
2026-04-19 05:24 33.97626 131.16805 11788 ft 190 kts 114°
2026-04-19 05:24 33.97098 131.18221 12424 ft 183 kts 114°
2026-04-19 05:24 33.96557 131.19642 12792 ft 192 kts 116°
2026-04-19 05:25 33.95928 131.21079 13264 ft 194 kts 119°
2026-04-19 05:25 33.95282 131.22454 13836 ft 192 kts 121°
2026-04-19 05:25 33.94588 131.23896 14110 ft 203 kts 119°
2026-04-19 05:25 33.93952 131.25375 14713 ft 195 kts 118°
2026-04-19 05:26 33.93340 131.26840 15064 ft 200 kts 119°
2026-04-19 05:26 33.92647 131.28357 15268 ft 210 kts 121°
2026-04-19 05:26 33.92003 131.29891 15799 ft 201 kts 118°
2026-04-19 05:26 33.91360 131.31391 16111 ft 206 kts 121°
2026-04-19 05:27 33.90621 131.32914 16343 ft 213 kts 124°
2026-04-19 05:27 33.89870 131.34401 16921 ft 203 kts 125°
2026-04-19 05:27 33.89119 131.35850 17276 ft 208 kts 126°
2026-04-19 05:27 33.88351 131.37383 17533 ft 216 kts 125°
2026-04-19 05:28 33.87459 131.38819 17904 ft 214 kts 135°
2026-04-19 05:28 33.86496 131.40190 18225 ft 215 kts 132°
2026-04-19 05:28 33.85602 131.41647 18506 ft 218 kts 129°
2026-04-19 05:28 33.84734 131.43144 18767 ft 218 kts 130°
2026-04-19 05:29 33.83796 131.44579 19047 ft 218 kts 135°
2026-04-19 05:29 33.82773 131.45910 19328 ft 216 kts 141°
2026-04-19 05:29 33.81592 131.47020 19554 ft 216 kts 149°
2026-04-19 05:29 33.80363 131.48044 19853 ft 215 kts 148°
2026-04-19 05:30 33.79233 131.49244 20120 ft 219 kts 140°
2026-04-19 05:30 33.78210 131.50640 20387 ft 225 kts 135°
2026-04-19 05:30 33.77252 131.52156 20710 ft 230 kts 131°
2026-04-19 05:30 33.76384 131.53767 21116 ft 229 kts 128°
2026-04-19 05:31 33.75579 131.55431 21436 ft 233 kts 125°
2026-04-19 05:31 33.74865 131.57203 21683 ft 238 kts 120°
2026-04-19 05:31 33.74278 131.59090 21887 ft 243 kts 115°
2026-04-19 05:31 33.73764 131.61032 22143 ft 245 kts 112°
2026-04-19 05:32 33.73461 131.63049 22535 ft 246 kts 97°
2026-04-19 05:32 33.73730 131.65089 22924 ft 250 kts 77°
2026-04-19 05:32 33.74244 131.67124 22988 ft 259 kts 81°
2026-04-19 05:32 33.74513 131.69289 22998 ft 265 kts 91°
2026-04-19 05:33 33.74627 131.71494 23004 ft 272 kts 91°
2026-04-19 05:33 33.74809 131.73812 23001 ft 278 kts 88°
2026-04-19 05:33 33.75040 131.76106 23002 ft 282 kts 88°
2026-04-19 05:33 33.75259 131.78467 22996 ft 286 kts 89°
2026-04-19 05:34 33.75466 131.80887 23000 ft 290 kts 89°
2026-04-19 05:34 33.75675 131.83279 23004 ft 293 kts 89°
2026-04-19 05:34 33.75895 131.85731 23005 ft 297 kts 89°
2026-04-19 05:34 33.76113 131.88217 23007 ft 302 kts 89°
2026-04-19 05:35 33.76337 131.90755 23007 ft 309 kts 88°
2026-04-19 05:35 33.76565 131.93347 23005 ft 314 kts 88°
2026-04-19 05:35 33.76796 131.95970 23008 ft 317 kts 88°
2026-04-19 05:35 33.77026 131.98617 23002 ft 320 kts 88°
2026-04-19 05:36 33.77260 132.01278 22999 ft 321 kts 88°
2026-04-19 05:36 33.77493 132.03944 23005 ft 321 kts 88°
2026-04-19 05:36 33.77726 132.06611 23004 ft 321 kts 88°
2026-04-19 05:36 33.77957 132.09278 23004 ft 321 kts 88°
2026-04-19 05:37 33.78186 132.11945 23011 ft 321 kts 88°
2026-04-19 05:37 33.78417 132.14615 23009 ft 321 kts 88°
2026-04-19 05:37 33.78648 132.17287 23008 ft 321 kts 88°
2026-04-19 05:37 33.78874 132.19958 22994 ft 321 kts 88°
2026-04-19 05:38 33.79101 132.22623 23000 ft 321 kts 88°
2026-04-19 05:38 33.79334 132.25295 22996 ft 321 kts 88°
2026-04-19 05:38 33.79558 132.27967 22996 ft 321 kts 88°
2026-04-19 05:38 33.79783 132.30639 22997 ft 321 kts 88°
2026-04-19 05:39 33.80011 132.33310 22996 ft 321 kts 88°
2026-04-19 05:39 33.80238 132.35980 22995 ft 321 kts 88°
2026-04-19 05:39 33.80461 132.38649 22991 ft 321 kts 88°
2026-04-19 05:39 33.80685 132.41315 22987 ft 321 kts 88°
2026-04-19 05:40 33.80911 132.43984 22988 ft 321 kts 88°
2026-04-19 05:40 33.81133 132.46658 22988 ft 322 kts 88°
2026-04-19 05:40 33.81354 132.49336 22989 ft 322 kts 88°
2026-04-19 05:40 33.81578 132.52011 22989 ft 323 kts 88°
2026-04-19 05:41 33.81800 132.54702 22995 ft 323 kts 88°
2026-04-19 05:41 33.82022 132.57388 22992 ft 324 kts 88°
2026-04-19 05:41 33.82244 132.60088 22996 ft 325 kts 88°
2026-04-19 05:41 33.82466 132.62793 22980 ft 325 kts 88°
2026-04-19 05:42 33.82654 132.65500 22982 ft 323 kts 92°
2026-04-19 05:42 33.82408 132.68160 22987 ft 318 kts 107°
2026-04-19 05:42 33.81697 132.70651 22990 ft 313 kts 120°
2026-04-19 05:42 33.80579 132.72860 22988 ft 307 kts 133°
2026-04-19 05:43 33.79246 132.74851 22993 ft 306 kts 134°
2026-04-19 05:43 33.77927 132.76859 23000 ft 306 kts 134°
2026-04-19 05:43 33.76603 132.78869 22958 ft 308 kts 134°
2026-04-19 05:43 33.75245 132.80904 22630 ft 316 kts 134°
2026-04-19 05:44 33.73880 132.82952 22222 ft 319 kts 134°
2026-04-19 05:44 33.72500 132.85039 21800 ft 319 kts 134°
2026-04-19 05:44 33.71116 132.87124 21384 ft 319 kts 134°
2026-04-19 05:44 33.69726 132.89210 20960 ft 320 kts 134°
2026-04-19 05:45 33.68333 132.91304 20536 ft 321 kts 133°
2026-04-19 05:45 33.66940 132.93395 20116 ft 322 kts 134°
2026-04-19 05:45 33.65533 132.95500 19688 ft 324 kts 133°
2026-04-19 05:45 33.64161 132.97660 19257 ft 328 kts 128°
2026-04-19 05:46 33.62980 133.00006 18830 ft 330 kts 125°
2026-04-19 05:46 33.61781 133.02370 18395 ft 333 kts 126°
2026-04-19 05:46 33.60557 133.04723 17919 ft 331 kts 127°
2026-04-19 05:46 33.59356 133.07050 17479 ft 328 kts 126°
2026-04-19 05:47 33.58166 133.09383 17054 ft 326 kts 126°
2026-04-19 05:47 33.56974 133.11708 16623 ft 327 kts 126°
2026-04-19 05:47 33.55783 133.14012 16188 ft 323 kts 126°
2026-04-19 05:47 33.54610 133.16293 15761 ft 318 kts 126°
2026-04-19 05:48 33.53453 133.18544 15336 ft 315 kts 126°
2026-04-19 05:48 33.52312 133.20767 14931 ft 313 kts 126°
2026-04-19 05:48 33.51174 133.22974 14503 ft 307 kts 125°
2026-04-19 05:48 33.50056 133.25163 14118 ft 312 kts 127°
2026-04-19 05:49 33.48905 133.27366 13688 ft 310 kts 127°
2026-04-19 05:49 33.47961 133.29678 13252 ft 310 kts 114°
2026-04-19 05:49 33.47367 133.32139 12846 ft 304 kts 109°
2026-04-19 05:49 33.46801 133.34555 12451 ft 300 kts 110°
2026-04-19 05:50 33.46225 133.36937 12053 ft 295 kts 110°
2026-04-19 05:50 33.45680 133.39219 11683 ft 272 kts 109°
2026-04-19 05:50 33.45352 133.40619 11444 ft 255 kts 109°
2026-04-19 05:50 33.44884 133.42594 11116 ft 240 kts 110°
2026-04-19 05:51 33.44424 133.44488 10799 ft 236 kts 110°
2026-04-19 05:51 33.43977 133.46369 10493 ft 233 kts 109°
2026-04-19 05:51 33.43533 133.48226 10185 ft 231 kts 109°
2026-04-19 05:51 33.43094 133.50060 9878 ft 228 kts 109°
2026-04-19 05:52 33.42663 133.51868 9557 ft 224 kts 108°
2026-04-19 05:52 33.42234 133.53657 9256 ft 224 kts 109°
2026-04-19 05:52 33.41805 133.55445 8962 ft 223 kts 108°
2026-04-19 05:52 33.41376 133.57235 8669 ft 224 kts 108°
2026-04-19 05:53 33.40945 133.59027 8370 ft 224 kts 108°
2026-04-19 05:53 33.40516 133.60820 8075 ft 224 kts 108°
2026-04-19 05:53 33.40087 133.62605 7781 ft 223 kts 108°
2026-04-19 05:53 33.39659 133.64388 7477 ft 224 kts 107°
2026-04-19 05:54 33.39228 133.66183 7198 ft 225 kts 107°
2026-04-19 05:54 33.38798 133.67971 6899 ft 223 kts 107°
2026-04-19 05:54 33.38370 133.69746 6605 ft 222 kts 106°
2026-04-19 05:54 33.37943 133.71519 6308 ft 221 kts 106°
2026-04-19 05:55 33.37514 133.73288 6002 ft 221 kts 106°
2026-04-19 05:55 33.37088 133.75056 5709 ft 221 kts 106°
2026-04-19 05:55 33.36795 133.76842 5406 ft 219 kts 92°
2026-04-19 05:55 33.37016 133.78640 5105 ft 220 kts 74°
2026-04-19 05:56 33.37715 133.80262 4816 ft 221 kts 55°
2026-04-19 05:56 33.38827 133.81532 4519 ft 223 kts 36°
2026-04-19 05:56 33.40223 133.82290 4231 ft 226 kts 17°
2026-04-19 05:56 33.41781 133.82445 3997 ft 224 kts 356°
2026-04-19 05:57 33.43285 133.81975 3985 ft 228 kts 338°
2026-04-19 05:57 33.44656 133.81044 3991 ft 223 kts 333°
2026-04-19 05:57 33.46050 133.80235 3992 ft 222 kts 336°
2026-04-19 05:57 33.47455 133.79452 3987 ft 222 kts 336°
2026-04-19 05:58 33.48825 133.78685 3990 ft 214 kts 336°
2026-04-19 05:58 33.50153 133.77935 3985 ft 208 kts 336°
2026-04-19 05:58 33.51443 133.77204 3985 ft 203 kts 336°
2026-04-19 05:58 33.52706 133.76479 3987 ft 201 kts 336°
2026-04-19 05:59 33.53957 133.75766 3986 ft 197 kts 336°
2026-04-19 05:59 33.55194 133.75061 3990 ft 197 kts 336°
2026-04-19 05:59 33.56428 133.74354 3987 ft 196 kts 336°
2026-04-19 05:59 33.57656 133.73652 3987 ft 195 kts 336°
2026-04-19 06:00 33.58897 133.73000 3924 ft 195 kts 338°
2026-04-19 06:00 33.59980 133.71986 3797 ft 201 kts 308°
2026-04-19 06:00 33.60516 133.70613 3951 ft 167 kts 297°
2026-04-19 06:00 33.61125 133.69458 3751 ft 165 kts 308°
2026-04-19 06:01 33.61877 133.68392 3446 ft 170 kts 313°
2026-04-19 06:01 33.62423 133.67154 3195 ft 170 kts 280°
2026-04-19 06:01 33.62273 133.65782 2979 ft 167 kts 244°
2026-04-19 06:01 33.61590 133.64698 2782 ft 163 kts 223°
2026-04-19 06:02 33.60707 133.63848 2510 ft 163 kts 211°
2026-04-19 06:02 33.59682 133.63234 2074 ft 168 kts 200°
2026-04-19 06:02 33.58535 133.62969 1685 ft 168 kts 183°
2026-04-19 06:02 33.57407 133.63177 1318 ft 159 kts 158°
2026-04-19 06:03 33.56586 133.64008 781 ft 155 kts 127°
2026-04-19 06:03 33.55979 133.65017 404 ft 137 kts 128°
2026-04-19 06:03 33.55434 133.65786 92 ft 109 kts 135°
2026-04-19 06:03 33.54995 133.66381 31 ft 81 kts 137°
2026-04-19 06:04 33.54764 133.66700 29 ft 14 kts 114°
2026-04-19 06:04 33.54769 133.66736 30 ft 5 kts 69°
2026-04-19 06:04 33.54786 133.66776 30 ft 6 kts 46°
2026-04-19 06:04 33.54821 133.66812 31 ft 7 kts 40°
2026-04-19 06:05 33.54855 133.66865 31 ft 9 kts 78°
2026-04-19 06:05 33.54822 133.66937 31 ft 12 kts 133°
2026-04-19 06:05 33.54763 133.67019 31 ft 14 kts 126°
2026-04-19 06:05 33.54698 133.67114 31 ft 16 kts 131°
2026-04-19 06:06 33.54623 133.67217 31 ft 17 kts 129°
2026-04-19 06:06 33.54544 133.67328 31 ft 18 kts 131°
2026-04-19 06:06 33.54496 133.67406 31 ft 5 kts 60°
2026-04-19 06:06 33.54520 133.67430 31 ft 5 kts 40°
2026-04-19 06:07 33.54546 133.67457 31 ft 5 kts 40°
2026-04-19 06:07 33.54582 133.67476 31 ft 6 kts 12°
2026-04-19 06:07 33.54597 133.67469 31 ft 0 kts 306°